CW4427 Weather Reports


time (UTC)temp
C
wind
direction
speed
KPH
gust
KPH
rain 1hr
cm
rain 24hr
cm
rain mn
cm
humidity
%
barometer
mb
20260906131350 29 126 1.6 9.7 0.00 0.00 0.00 74 1013.3
20260906130350 27 129 0.0 4.8 0.00 0.00 0.00 80 1013.3
20260906125850 28 136 0.0 0.0 0.00 0.00 0.00 78 1013.2
20260906124350 27 118 1.6 6.4 0.00 0.00 0.00 83 1013.1
20260906123350 26 136 1.6 4.8 0.00 0.00 0.00 87 1013.2
20260906122350 25 165 0.0 3.2 0.00 0.00 0.00 90 1013.1
20260906121850 25 120 0.0 0.0 0.00 0.00 0.00 91 1013.1
20260906121350 25 33 0.0 0.0 0.00 0.00 0.00 90 1013.0
20260906120850 25 33 0.0 0.0 0.00 0.00 0.00 90 1012.8
20260906120350 25 33 0.0 0.0 0.00 0.00 0.00 91 1012.7
20260906115850 25 33 0.0 0.0 0.00 0.00 0.00 91 1012.7
20260906115350 25 33 0.0 0.0 0.00 0.00 0.00 90 1012.8
20260906114850 25 33 0.0 0.0 0.00 0.00 0.00 90 1012.7
20260906114350 25 33 0.0 0.0 0.00 0.00 0.00 90 1012.5
20260906113850 25 33 0.0 0.0 0.00 0.00 0.00 91 1012.5
20260906113350 25 33 0.0 0.0 0.00 0.00 0.00 91 1012.4
20260906112350 25 33 0.0 0.0 0.00 0.00 0.00 90 1012.3
20260906111850 25 33 0.0 0.0 0.00 0.00 0.00 90 1012.3
20260906111350 25 33 0.0 0.0 0.00 0.00 0.00 90 1012.3
20260906110850 25 33 0.0 0.0 0.00 0.00 0.00 90 1012.2
20260906110350 25 33 0.0 0.0 0.00 0.00 0.00 90 1012.2
20260906105850 25 33 0.0 0.0 0.00 0.00 0.00 90 1012.2
20260906105350 25 33 0.0 0.0 0.00 0.00 0.00 90 1012.0
20260906104850 25 33 0.0 0.0 0.00 0.00 0.00 89 1011.9
20260906104350 25 33 0.0 0.0 0.00 0.00 0.00 90 1011.9
20260906103850 25 33 0.0 0.0 0.00 0.00 0.00 90 1011.8
20260906102850 25 33 0.0 0.0 0.00 0.00 0.00 90 1011.7
20260906102350 25 33 0.0 0.0 0.00 0.00 0.00 90 1011.6
20260906101850 25 33 0.0 0.0 0.00 0.00 0.00 90 1011.7
20260906101350 25 33 0.0 0.0 0.00 0.00 0.00 90 1011.6
20260906100849 25 33 0.0 3.2 0.00 0.00 0.00 90 1011.6
20260906095850 25 33 0.0 3.2 0.00 0.00 0.00 91 1011.6
20260906095350 25 189 0.0 0.0 0.00 0.00 0.00 91 1011.6
20260906094350 25 189 0.0 0.0 0.00 0.00 0.00 90 1011.6
20260906093850 25 189 0.0 0.0 0.00 0.00 0.00 90 1011.6
20260906093350 25 189 0.0 0.0 0.00 0.00 0.00 89 1011.6
20260906092850 25 189 0.0 0.0 0.00 0.00 0.00 89 1011.6
20260906092350 25 189 0.0 0.0 0.00 0.00 0.00 89 1011.4
20260906091849 25 189 0.0 0.0 0.00 0.00 0.00 89 1011.4
20260906091349 25 189 0.0 0.0 0.00 0.00 0.00 89 1011.4
20260906090850 25 189 0.0 0.0 0.00 0.00 0.00 89 1011.5
20260906085850 25 189 0.0 0.0 0.00 0.00 0.00 89 1011.5
20260906085349 25 189 0.0 0.0 0.00 0.00 0.00 88 1011.6
20260906084850 25 189 0.0 0.0 0.00 0.00 0.00 88 1011.7
20260906084350 25 189 0.0 0.0 0.00 0.00 0.00 88 1011.5
20260906083849 25 189 0.0 0.0 0.00 0.00 0.00 88 1011.6
20260906083349 25 189 0.0 0.0 0.00 0.00 0.00 88 1011.5
20260906082849 25 189 0.0 0.0 0.00 0.00 0.00 87 1011.5
20260906082349 25 189 0.0 0.0 0.00 0.00 0.00 87 1011.5
20260906081849 25 189 0.0 0.0 0.00 0.00 0.00 87 1011.6
20260906081349 25 189 0.0 0.0 0.00 0.00 0.00 87 1011.6
20260906080849 25 189 0.0 0.0 0.00 0.00 0.00 87 1011.6
20260906075349 26 189 0.0 0.0 0.00 0.00 0.00 86 1011.6
20260906074349 26 189 0.0 0.0 0.00 0.00 0.00 86 1011.7
20260906073849 26 189 0.0 0.0 0.00 0.00 0.00 85 1011.6
20260906073349 26 189 0.0 0.0 0.00 0.00 0.00 85 1011.5
20260906072849 26 189 0.0 0.0 0.00 0.00 0.00 85 1011.5
20260906071849 26 189 0.0 0.0 0.00 0.00 0.00 85 1011.6
20260906071349 26 189 0.0 1.6 0.00 0.00 0.00 85 1011.5
20260906070850 26 189 0.0 1.6 0.00 0.00 0.00 85 1011.5
20260906070349 26 189 0.0 3.2 0.00 0.00 0.00 85 1011.4
20260906065849 26 189 0.0 6.4 0.00 0.00 0.00 85 1011.5
20260906065349 26 189 3.2 6.4 0.00 0.00 0.00 85 1011.4
20260906064849 26 73 0.0 0.0 0.00 0.00 0.00 85 1011.4
20260906064349 26 73 0.0 0.0 0.00 0.00 0.00 85 1011.3
20260906063849 26 74 0.0 0.0 0.00 0.00 0.00 85 1011.3
20260906063349 26 73 0.0 0.0 0.00 0.00 0.00 85 1011.4
20260906062349 26 73 0.0 0.0 0.00 0.00 0.00 85 1011.5
20260906061849 26 73 0.0 0.0 0.00 0.00 0.00 85 1011.5
20260906060849 26 73 0.0 0.0 0.00 0.00 0.00 84 1011.8
20260906060349 26 73 0.0 0.0 0.00 0.00 0.00 84 1011.8
20260906055849 26 73 0.0 0.0 0.00 0.00 0.00 84 1011.9
20260906055349 26 73 0.0 0.0 0.00 0.00 0.00 84 1011.9
20260906054849 26 73 0.0 0.0 0.00 0.00 0.00 84 1011.9
20260906053349 26 73 0.0 0.0 0.00 0.00 0.00 83 1011.9
20260906051849 26 73 0.0 0.0 0.00 0.00 0.00 83 1011.8
20260906051349 26 73 0.0 1.6 0.00 0.00 0.00 83 1011.7
20260906050849 26 73 0.0 1.6 0.00 0.00 0.00 83 1011.7
20260906050349 26 73 0.0 0.0 0.00 0.00 0.00 83 1011.8
20260906045849 26 74 0.0 0.0 0.00 0.00 0.00 83 1011.8
20260906045349 26 74 0.0 0.0 0.00 0.00 0.00 83 1011.6
20260906044848 26 74 0.0 0.0 0.00 0.00 0.00 83 1011.7
20260906044349 26 73 0.0 0.0 0.00 0.00 0.00 82 1011.6
20260906043849 26 73 0.0 0.0 0.00 0.00 0.00 82 1011.6
20260906043349 26 74 0.0 0.0 0.00 0.00 0.00 82 1011.5
20260906042848 27 73 0.0 0.0 0.00 0.00 0.00 82 1011.5
20260906042349 27 73 0.0 0.0 0.00 0.00 0.00 81 1011.5
20260906041849 27 73 0.0 0.0 0.00 0.00 0.00 81 1011.5
20260906041349 27 74 0.0 0.0 0.00 0.00 0.00 81 1011.6
20260906040348 27 74 0.0 0.0 0.00 0.00 0.00 80 1011.5
20260906035849 27 74 0.0 0.0 0.00 0.00 0.00 81 1011.5
20260906035348 27 73 0.0 0.0 0.00 0.00 0.00 80 1011.4
20260906034849 27 74 0.0 0.0 0.00 0.00 0.00 80 1011.5
20260906034349 27 73 0.0 0.0 0.00 0.00 0.00 80 1011.5
20260906033848 27 73 0.0 0.0 0.00 0.00 0.00 79 1011.6
20260906033348 27 73 0.0 0.0 0.00 0.00 0.00 79 1011.6
20260906032848 27 74 0.0 0.0 0.00 0.00 0.00 79 1011.8
20260906032348 27 73 0.0 0.0 0.00 0.00 0.00 78 1011.8
20260906031849 27 73 0.0 0.0 0.00 0.00 0.00 78 1011.6
20260906031349 27 73 0.0 0.0 0.00 0.00 0.00 78 1011.6
20260906030849 27 73 0.0 0.0 0.00 0.00 0.00 78 1011.7
20260906030349 27 74 0.0 0.0 0.00 0.00 0.00 77 1011.5
20260906025849 28 73 0.0 0.0 0.00 0.00 0.00 77 1011.5
20260906025348 28 74 0.0 0.0 0.00 0.00 0.00 76 1011.5
20260906024848 28 74 0.0 0.0 0.00 0.00 0.00 76 1011.5
20260906024348 28 74 0.0 0.0 0.00 0.00 0.00 75 1011.5
20260906023849 28 74 0.0 0.0 0.00 0.00 0.00 75 1011.5
20260906022848 28 74 0.0 0.0 0.00 0.00 0.00 75 1011.3
20260906021848 28 73 0.0 0.0 0.00 0.00 0.00 74 1011.2
20260906021348 28 73 0.0 0.0 0.00 0.00 0.00 74 1011.2
20260906020848 28 73 0.0 0.0 0.00 0.00 0.00 74 1011.2
20260906020348 28 74 0.0 0.0 0.00 0.00 0.00 74 1011.1
20260906015848 28 74 0.0 0.0 0.00 0.00 0.00 73 1011.0
20260906015348 28 74 0.0 0.0 0.00 0.00 0.00 72 1010.9
20260906014848 29 74 0.0 0.0 0.00 0.00 0.00 72 1011.0
20260906014348 29 73 0.0 0.0 0.00 0.00 0.00 71 1010.9
20260906013848 29 74 0.0 0.0 0.00 0.00 0.00 70 1010.9
20260906013348 29 74 0.0 0.0 0.00 0.00 0.00 70 1010.8
20260906012848 29 74 0.0 0.0 0.00 0.00 0.00 70 1010.6
20260906012348 29 73 0.0 0.0 0.00 0.00 0.00 69 1010.6
20260906011848 29 74 0.0 0.0 0.00 0.00 0.00 70 1010.5
20260906011348 30 74 0.0 0.0 0.00 0.00 0.00 68 1010.4
20260906010348 30 74 0.0 0.0 0.00 0.00 0.00 67 1010.3
20260906005848 30 74 0.0 0.0 0.00 0.00 0.00 66 1010.3
20260906005348 30 74 0.0 0.0 0.00 0.00 0.00 66 1010.3
20260906004848 31 74 0.0 0.0 0.00 0.00 0.00 65 1010.4
20260906004348 31 73 0.0 0.0 0.00 0.00 0.00 65 1010.4
20260906003848 31 74 0.0 0.0 0.00 0.00 0.00 65 1010.3
20260906002848 31 73 0.0 0.0 0.00 0.00 0.00 63 1010.3
20260906002348 31 74 0.0 0.0 0.00 0.00 0.00 62 1010.3
20260906001848 32 74 0.0 0.0 0.00 0.00 0.00 61 1010.4
20260906001348 32 74 0.0 0.0 0.00 0.00 0.00 60 1010.3
20260906000848 32 73 0.0 0.0 0.00 0.00 0.00 59 1010.3
20260906000348 32 73 0.0 0.0 0.00 0.00 0.00 58 1010.3
20260905235848 33 74 0.0 0.0 0.00 0.00 0.00 57 1010.3
20260905235348 33 73 0.0 0.0 0.00 0.00 0.00 58 1010.4
20260905234848 33 73 0.0 0.0 0.00 0.00 0.00 59 1010.4
20260905234348 33 73 0.0 0.0 0.00 0.00 0.00 57 1010.4
20260905233848 33 73 0.0 0.0 0.00 0.00 0.00 56 1010.5
20260905233348 35 73 0.0 0.0 0.00 0.00 0.00 54 1010.4
20260905232848 35 73 0.0 1.6 0.00 0.00 0.00 55 1010.4
20260905232348 35 56 0.0 1.6 0.00 0.00 0.00 52 1010.3
20260905230848 36 34 3.2 6.4 0.00 0.00 0.00 48 1010.5
20260905230348 36 49 0.0 6.4 0.00 0.00 0.00 49 1010.4
20260905225848 36 78 0.0 4.8 0.00 0.00 0.00 50 1010.6
20260905225348 36 212 0.0 4.8 0.00 0.00 0.00 49 1010.4
20260905224848 36 71 3.2 6.4 0.00 0.00 0.00 49 1010.4
20260905224348 36 123 3.2 6.4 0.00 0.00 0.00 48 1010.5
20260905223848 36 68 1.6 8.0 0.00 0.00 0.00 49 1010.4
20260905223347 36 51 4.8 12.9 0.00 0.00 0.00 48 1010.4
20260905222848 36 97 4.8 12.9 0.00 0.00 0.00 48 1010.4
20260905222347 36 92 11.3 16.1 0.00 0.00 0.00 48 1010.5
20260905221848 36 25 3.2 16.1 0.00 0.00 0.00 49 1010.5
20260905221347 36 22 8.0 14.5 0.00 0.00 0.00 48 1010.6
20260905220848 36 42 8.0 14.5 0.00 0.00 0.00 48 1010.6
20260905220348 36 158 8.0 14.5 0.00 0.00 0.00 48 1010.6
20260905215848 36 23 1.6 14.5 0.00 0.00 0.00 48 1010.5
20260905215348 36 55 6.4 14.5 0.00 0.00 0.00 47 1010.5
20260905214848 37 107 4.8 16.1 0.00 0.00 0.00 46 1010.5
20260905214348 37 32 8.0 16.1 0.00 0.00 0.00 45 1010.5
20260905213348 37 142 1.6 9.7 0.00 0.00 0.00 42 1010.5
20260905212848 37 111 9.7 9.7 0.00 0.00 0.00 43 1010.5
20260905212347 37 50 0.0 11.3 0.00 0.00 0.00 41 1010.5
20260905211347 37 42 1.6 11.3 0.00 0.00 0.00 42 1010.6
20260905210847 38 24 4.8 12.9 0.00 0.00 0.00 42 1010.8
20260905210347 37 173 1.6 12.9 0.00 0.00 0.00 42 1010.7
20260905205848 37 109 6.4 11.3 0.00 0.00 0.00 43 1010.9
20260905204847 38 57 0.0 16.1 0.00 0.00 0.00 43 1011.0
20260905204348 37 28 3.2 16.1 0.00 0.00 0.00 43 1011.0
20260905203847 37 11 3.2 16.1 0.00 0.00 0.00 43 1010.9
20260905203347 37 28 3.2 22.5 0.00 0.00 0.00 43 1011.2
20260905202348 37 29 9.7 16.1 0.00 0.00 0.00 44 1011.4
20260905201847 36 84 8.0 12.9 0.00 0.00 0.00 44 1011.4
20260905200847 37 350 3.2 11.3 0.00 0.00 0.00 43 1011.5
20260905200347 37 76 1.6 16.1 0.00 0.00 0.00 42 1011.5
20260905195847 38 132 4.8 16.1 0.00 0.00 0.00 40 1011.5
20260905195347 38 207 1.6 12.9 0.00 0.00 0.00 42 1011.8
20260905193847 37 121 12.9 14.5 0.00 0.00 0.00 42 1011.9
20260905193347 37 116 9.7 12.9 0.00 0.00 0.00 43 1012.0
20260905192847 38 109 4.8 11.3 0.00 0.00 0.00 43 1012.1
20260905192347 37 40 3.2 8.0 0.00 0.00 0.00 45 1012.1
20260905191847 37 31 4.8 12.9 0.00 0.00 0.00 44 1012.1
20260905191347 37 127 6.4 14.5 0.00 0.00 0.00 42 1012.2
20260905190847 37 26 4.8 14.5 0.00 0.00 0.00 43 1012.4
20260905190347 38 22 6.4 11.3 0.00 0.00 0.00 42 1012.3
20260905184847 37 117 11.3 19.3 0.00 0.00 0.00 45 1012.5
20260905184347 37 142 0.0 16.1 0.00 0.00 0.00 47 1012.5
20260905183847 37 28 3.2 17.7 0.00 0.00 0.00 46 1012.6
20260905183347 37 43 8.0 17.7 0.00 0.00 0.00 46 1012.6
20260905182347 37 24 4.8 17.7 0.00 0.00 0.00 45 1012.8
20260905181347 37 99 0.0 14.5 0.00 0.00 0.00 45 1012.9
20260905180347 37 53 3.2 16.1 0.00 0.00 0.00 46 1012.9
20260905175847 37 25 0.0 19.3 0.00 0.00 0.00 45 1012.9
20260905175347 37 88 4.8 19.3 0.00 0.00 0.00 45 1013.0
20260905174846 37 360 6.4 14.5 0.00 0.00 0.00 46 1013.1
20260905174347 38 344 3.2 12.9 0.00 0.00 0.00 52 1013.1
20260905172846 37 105 9.7 14.5 0.00 0.00 0.00 48 1013.2
20260905172346 37 58 11.3 14.5 0.00 0.00 0.00 47 1013.3
20260905171847 36 12 3.2 12.9 0.00 0.00 0.00 51 1013.2
20260905171346 37 237 4.8 12.9 0.00 0.00 0.00 54 1013.2
20260905170346 36 106 6.4 9.7 0.00 0.00 0.00 52 1013.5
20260905165846 36 30 4.8 9.7 0.00 0.00 0.00 52 1013.5
20260905165346 36 103 3.2 9.7 0.00 0.00 0.00 52 1013.5
20260905164846 36 43 0.0 14.5 0.00 0.00 0.00 52 1013.6
20260905164347 36 11 6.4 14.5 0.00 0.00 0.00 53 1013.8
20260905163846 35 117 9.7 9.7 0.00 0.00 0.00 55 1013.8
20260905163347 35 65 3.2 8.0 0.00 0.00 0.00 55 1013.9
20260905162846 35 24 3.2 9.7 0.00 0.00 0.00 56 1013.9
20260905162347 36 42 6.4 9.7 0.00 0.00 0.00 53 1014.0
20260905161846 36 5 1.6 9.7 0.00 0.00 0.00 55 1014.2
20260905161346 36 263 0.0 9.7 0.00 0.00 0.00 58 1014.1
20260905160846 35 325 1.6 12.9 0.00 0.00 0.00 55 1014.1
20260905160347 35 331 0.0 12.9 0.00 0.00 0.00 58 1014.1
20260905155846 35 42 1.6 8.0 0.00 0.00 0.00 56 1014.1
20260905155346 35 61 1.6 12.9 0.00 0.00 0.00 57 1014.2
20260905154846 35 24 8.0 12.9 0.00 0.00 0.00 59 1014.2
20260905154346 34 13 1.6 8.0 0.00 0.00 0.00 59 1014.2
20260905153846 34 284 4.8 8.0 0.00 0.00 0.00 60 1014.1
20260905153346 33 336 1.6 9.7 0.00 0.00 0.00 61 1014.1
20260905152846 33 17 1.6 9.7 0.00 0.00 0.00 62 1014.2
20260905152347 33 99 3.2 4.8 0.00 0.00 0.00 61 1014.2
20260905151847 34 273 0.0 4.8 0.00 0.00 0.00 61 1014.2
20260905151346 34 14 0.0 4.8 0.00 0.00 0.00 64 1014.2
20260905145846 33 15 3.2 6.4 0.00 0.00 0.00 63 1014.4
20260905145346 32 32 0.0 6.4 0.00 0.00 0.00 64 1014.3
20260905144846 32 41 4.8 6.4 0.00 0.00 0.00 63 1014.3
20260905144346 32 38 3.2 6.4 0.00 0.00 0.00 63 1014.2
20260905142346 32 40 3.2 4.8 0.00 0.00 0.00 65 1014.1
20260905141846 32 65 1.6 4.8 0.00 0.00 0.00 65 1014.1
20260905141346 32 30 0.0 0.0 0.00 0.00 0.00 67 1014.1
20260905140846 31 109 0.0 0.0 0.00 0.00 0.00 69 1014.1
20260905140346 31 253 0.0 0.0 0.00 0.00 0.00 70 1014.1
20260905134846 31 286 1.6 3.2 0.00 0.00 0.00 68 1014.1
20260905134346 31 311 0.0 0.0 0.00 0.00 0.00 69 1014.0
20260905133846 30 302 0.0 0.0 0.00 0.00 0.00 71 1014.1
20260905132846 29 164 0.0 0.0 0.00 0.00 0.00 77 1014.0
20260905132346 28 164 0.0 0.0 0.00 0.00 0.00 79 1014.0
20260905131846 28 164 0.0 0.0 0.00 0.00 0.00 79 1014.0